USA 169 (MILSTAR-2 4)

Last updated on Mon Feb 16 2026 00:02:46 GMT+0000 (Coordinated Universal Time)

1 27711U 03012A 26046.28531597 -.00000190 00000+0 00000+0 0 9991 2 27711 12.1634 30.8139 0099201 2.9750 6.3390 1.00270894 31731
UTC large
Height (km)
Speed (km/s)
/
Latitude / Longitude
Inclination (degrees)
Orbital Period (minutes)
Azimuth
Elevation
Range (km)
Doppler Factor

Next 0 passes for location: London (51.5072 / 0.1276)

Sorry there are no passes over London.